Location: Unspecified
(0.0000°N, 0.0000°E)
Time: 11:06:37
(UTC+00:00)

SR - Pass Details

Date: 28 November 2019
Orbit: 573 x 882 km, 66.7° (Epoch: 15 December)

Event Time Altitude Azimuth Distance (km) Brightness Sun altitude
Rises 21:58:53 0° 1° (N) 3,353 - -55.9°
Reaches altitude 10° 22:01:48 10° 14° (NNE) 2,376 - -56.4°
Maximum altitude 22:06:13 25° 68° (ENE) 1,505 - -57.2°
Drops below altitude 10° 22:10:21 10° 123° (ESE) 2,218 - -58.0°
Sets 22:12:58 0° 136° (SE) 3,083 - -58.5°
